Location: Ovac?k
(36.7911°N, 30.1833°E)
Time: 12:39:34
(UTC+00:00)

Daily predictions for brighter satellites

Satellite Brightness Start Highest point End
(mag) Time Altitude Azimuth Time Altitude Azimuth Time Altitude Azimuth
Cosmos 1943 3.2 17:41:04 10° NNW 17:46:42 76° ENE 17:52:20 10° SSE
Cosmos 1844 Rocket 2.6 17:41:45 10° SSW 17:47:17 75° ESE 17:52:51 10° NNE
Cosmos 1680 Rocket 3.7 17:43:44 10° N 17:48:54 57° ENE 17:54:04 10° SSE
NOSS 2-3 (D) 3.9 17:46:45 10° S 17:50:05 31° ESE 17:53:23 10° NE
OAO 2 Rocket 3.6 17:45:45 10° W 17:50:50 60° SSW 17:56:00 10° ESE
USA 215 4.3 17:45:39 10° E 17:51:28 35° NNE 17:57:17 10° NNW
MOS 1-B Rocket 4.0 17:47:04 10° SSE 17:52:45 89° ENE 17:59:04 10° NNW
Cosmos 1378 Rocket 3.6 17:49:12 10° S 17:53:37 87° W 17:58:03 10° N
ISS -0.5 17:53:28 10° NW 17:54:42 12° NNW 17:55:56 10° N
Cosmos 2181 Rocket 4.3 17:48:54 10° N 17:54:50 48° E 18:00:49 10° SSE
USA 186 2.2 17:55:10 10° S 17:58:12 58° W 18:01:13 10° NNW
Cosmos 1892 2.8 17:55:54 10° SSW 17:59:25 68° W 18:02:57 10° N
ARGOS Delta rocket 4.2 17:56:38 10° SSE 18:01:01 45° ENE 18:05:40 10° N
PSLV R/B 3.7 18:02:08 10° SSE 18:05:34 54° ENE 18:09:03 10° N
Cosmos 2112 Rocket 4.0 18:00:50 10° NNW 18:06:04 70° ENE 18:11:18 10° SSE
NOSS 2-2 (C) 3.1 18:03:37 10° SW 18:07:07 69° WNW 18:10:13 10° NNE
CSL-04 Rocket 3.8 18:02:01 10° SSE 18:07:28 88° W 18:13:02 10° NNW
NOSS 2-2 (E) 2.8 18:04:12 10° SSW 18:07:50 67° ESE 18:10:57 10° NE
Cosmos 1825 2.7 18:05:01 10° SSW 18:08:19 53° W 18:11:39 10° N
DELTA 2 DEB (DPAF) 3.9 18:04:52 10° NNE 18:09:04 80° E 18:13:14 10° S
Cosmos 2221 Rocket 3.7 18:05:18 10° S 18:09:41 78° W 18:14:06 10° N
CARTOSAT-1 3.9 18:07:50 10° S 18:12:03 64° W 18:16:18 10° NNW
CZ-4 R/B 3.3 18:09:47 10° SSW 18:13:18 28° W 18:16:48 10° NW
Cosmos 1603 3.7 18:07:51 10° NNW 18:13:35 78° ENE 18:19:00 11° SSE
Cosmos 1025 Rocket 3.2 18:09:36 10° SSE 18:13:41 49° E 18:17:47 10° NNE
Cosmos 1674 Rocket 4.1 18:09:31 10° SSW 18:13:45 60° W 18:18:01 10° N
Cosmos 1125 Rocket 4.4 18:09:20 10° SSE 18:13:48 28° E 18:18:17 10° NE
Okean 1 Rocket 3.2 18:10:36 10° N 18:14:59 56° E 18:19:11 11° SSE
SWAS 4.4 18:11:03 10° SSW 18:15:13 90° SW 18:19:27 10° NNE
GP-B 3.3 18:11:10 10° NNE 18:15:28 50° E 18:19:44 10° SSE
Cosmos 1975 Rocket 4.2 18:14:04 14° SE 18:16:58 25° E 18:20:37 10° NE
Terra 3.3 18:15:45 13° ESE 18:18:30 20° ENE 18:21:56 10° NNE
Cosmos 1455 Rocket 4.3 18:15:32 10° NNE 18:19:08 24° ENE 18:21:24 16° ESE
NOSS 2-3 (E) 3.0 18:15:30 10° SSW 18:19:10 84° ESE 18:22:55 10° NNE
Cosmos 2184 Rocket 4.1 18:14:58 10° S 18:21:14 64° E 18:27:29 10° NNE
Sich 1 Rocket 3.8 18:18:06 10° N 18:22:33 73° W 18:27:01 10° S
Cosmos 1328 4.1 18:25:15 10° SSW 18:29:02 63° W 18:32:49 10° N
Cosmos 2098 Rocket 4.4 18:28:28 10° NNW 18:32:00 31° W 18:35:01 10° SSW
Cosmos 44 4.0 18:28:49 10° S 18:33:41 37° ESE 18:38:26 10° NE
Resurs 01 Rocket 3.2 18:31:36 10° SSW 18:35:32 33° W 18:39:31 10° NNW
NOSS 2-3 (C) 3.7 18:33:51 10° SW 18:37:26 58° NW 18:41:09 10° NNE
Meteor 2-11 Rocket 4.4 18:34:07 10° S 18:40:10 71° E 18:46:17 10° NNE
Okean O Rocket 2.6 18:36:59 10° S 18:41:04 43° W 18:45:12 10° NNW
Okean 2 Rocket 4.3 18:37:50 10° NNW 18:42:03 42° W 18:46:14 10° SSW
IRS-1A Rocket 4.5 18:39:11 20° SE 18:43:00 56° ENE 18:48:37 10° N
NOSS 2-2 (D) 4.4 18:42:06 10° SW 18:45:25 39° NW 18:48:24 10° NNE
CZ-4C R/B 2.9 18:41:48 10° NNE 18:45:26 85° ESE 18:48:14 15° S
Cosmos 2154 Rocket 4.0 18:39:24 10° S 18:45:43 82° E 18:52:06 10° N
Cosmos 2074 Rocket 4.1 18:39:47 10° S 18:46:01 78° W 18:52:18 10° N
In-Cosmos 22 Rocket 4.2 18:46:11 10° S 18:51:55 74° E 18:57:34 10° NNE
Cosmos 921 Rocket 2.9 18:49:33 10° N 18:53:43 65° ENE 18:55:27 33° SE
Milstar 3 4.3 18:52:38 10° SSW 19:06:18 11° E 19:06:41 10° E
Hubble Space Telescope 2.1 18:55:30 10° WSW 18:58:29 22° S 18:58:29 22° S
ERS-1 Rocket 3.0 18:57:06 28° SSE 18:59:39 66° ENE 19:04:37 10° N
Spot 2 Rocket 3.8 19:01:11 31° SE 19:03:18 51° ENE 19:08:15 10° N
USA 245 4.5 19:01:17 26° SSE 19:05:00 74° ENE 19:11:20 10° N
H-II Stage 2 3.5 19:05:47 10° WSW 19:08:56 32° S 19:10:10 29° SSE
Okean-O 3.8 19:07:05 15° SSW 19:10:21 38° W 19:14:28 10° NNW
Cosmos 1437 Rocket 3.6 19:13:38 30° ENE 19:13:38 30° ENE 19:16:11 10° NNE
USA 276 4.2 19:15:11 10° NNW 19:17:24 19° NNE 19:17:55 18° NE
Cosmos 1833 Rocket 3.7 19:13:18 10° N 19:18:24 34° ENE 19:20:10 28° E
ATLAS CENTAUR R/B 1.3 19:14:40 10° NNW 19:18:44 69° ENE 19:19:27 55° ESE
Cosmos 2298 Rocket 4.0 19:18:44 32° S 19:21:08 66° ESE 19:26:25 10° NNE
SPOT 5 3.8 19:18:04 19° SSW 19:21:12 44° W 19:26:03 10° NNW
MOS 1 Rocket 3.2 19:20:07 41° S 19:21:46 87° WSW 19:26:17 10° NNW
ATLAS 3B R/B 3.7 19:27:26 27° ESE 19:27:26 27° ESE 19:32:53 10° NE
Meteor 2-1 Rocket 4.1 19:22:16 10° N 19:27:53 88° E 19:29:56 41° S
Cosmos 2366 rocket 4.1 19:26:15 39° SE 19:28:08 53° E 19:34:05 10° NNE
Ariane Rocket 2.9 19:29:11 47° SSE 19:30:43 85° ENE 19:35:49 10° NNW
Cosmos 2082 Rocket 4.3 19:30:45 10° NNE 19:33:12 13° NE 19:35:15 11° ENE
Cosmos 1606 2.5 19:29:41 10° N 19:33:00 76° N 19:33:00 76° N
USA 215 3.3 19:31:21 37° SSE 19:34:06 70° SW 19:40:40 10° NW
Cosmos 2278 Rocket 2.4 19:34:11 44° ESE 19:34:34 45° ESE 19:39:55 10° NE
Cosmos 1544 Rocket 3.5 19:32:24 10° N 19:36:43 64° E 19:36:49 64° E
SL-8 Rocket 3.9 19:35:07 39° S 19:37:37 75° E 19:43:54 10° N
Cosmos 1959 Rocket 4.5 19:41:51 45° SSE 19:43:43 66° E 19:49:58 10° NNE
NOSS 3-1 (C) 2.9 19:51:23 37° SW 19:53:17 78° WNW 19:58:44 10° NNE
Terra 2.9 19:54:27 30° SW 19:55:48 37° W 20:00:10 10° NNW
Cosmos 220 Rocket 4.0 19:52:18 10° NNW 19:56:09 74° NW 19:56:09 74° NW
Cosmos 1869 4.1 19:54:51 10° NNW 19:58:24 43° W 19:58:24 43° W
Landsat 5 3.6 19:56:16 10° N 20:00:39 76° WNW 20:00:41 76° W
Cosmos 1943 Rocket 2.5 20:07:17 50° E 20:07:17 50° E 20:12:06 10° NNE
Cosmos 2218 Rocket 4.0 20:05:20 46° SSW 20:07:15 76° W 20:13:26 10° N
SPOT 3 Rocket 4.3 20:07:01 39° SW 20:08:08 45° W 20:13:08 10° NNW
MetOp-A 4.1 20:26:34 59° WNW 20:26:34 59° WNW 20:30:28 10° NNW
NOSS 3-1 (A) 3.2 20:32:12 62° NNE 20:32:12 62° NNE 20:36:49 10° NNE
CZ-2C R/B 4.3 20:36:17 10° N 20:40:05 58° N 20:40:05 58° N
ARIANE 5 R/B 3.6 20:43:23 45° N 20:43:23 45° N 20:46:33 10° N
Cosmos 1727 Rocket 3.9 20:43:39 10° N 20:50:00 81° W 20:50:14 79° SW
Cosmos 1821 Rocket 4.3 20:49:48 52° WSW 20:50:47 58° W 20:57:03 10° N
USA 229 DEB 4.4 21:00:58 34° ENE 21:00:58 34° ENE 21:05:05 10° NE
USA 229 4.4 21:01:08 34° ENE 21:01:08 34° ENE 21:05:12 10° NE
BREEZE-M DEB (TANK) 4.1 20:54:06 10° NW 20:58:19 33° WNW 20:58:19 33° WNW
ALOS 2 4.3 21:02:50 28° NNE 21:02:50 28° NNE 21:05:21 10° N
Cosmos 1833 Rocket 4.0 20:57:19 10° NW 21:01:50 30° W 21:01:50 30° W
ISS -0.4 21:09:39 10° N 21:10:14 11° N 21:10:14 11° N
ATLAS 3B R/B 3.2 21:14:35 39° WSW 21:17:09 58° NW 21:24:36 10° NNE
Cosmos 2082 Rocket 2.5 21:12:24 10° NNW 21:17:04 63° NNW 21:17:04 63° NNW
Cosmos 2278 Rocket 4.1 21:15:57 16° W 21:18:48 24° WNW 21:23:19 10° N
Cosmos 2369 Rocket 3.6 21:22:27 28° ENE 21:22:27 28° ENE 21:25:30 10° NE
USA 281 4.2 21:19:07 33° E 21:20:22 36° ENE 21:26:14 10° N
Lacrosse 4 Rocket 4.2 21:42:59 11° NE 21:42:59 11° NE 21:43:11 10° NE
SeaSat 1 3.4 21:42:37 45° NNW 21:42:37 45° NNW 21:46:03 10° NNW
Milstar 3 4.1 21:39:49 53° SSW 21:41:42 56° SSE 22:00:34 10° E
Cosmos 2123 Rocket 4.4 21:42:57 10° NNW 21:48:35 56° WNW 21:48:35 56° WNW
COSMOS 2406 4.0 21:45:01 10° NNW 21:49:08 45° NW 21:49:08 45° NW
Cosmos 1943 Rocket 4.2 21:48:44 18° W 21:50:39 21° NW 21:54:51 10° N
Cosmos 407 Rocket 4.3 21:46:38 10° NNW 21:50:21 47° N 21:50:21 47° N
Meteor 2-3 Rocket 4.4 22:13:08 49° NW 22:13:08 49° NW 22:17:50 10° N
Cosmos 2251 Rocket 4.5 22:13:09 10° NNW 22:16:45 43° NW 22:16:45 43° NW
Lacrosse 5 rocket 3.9 22:25:52 17° NNE 22:25:52 17° NNE 22:27:00 10° NNE
CZ-4C R/B 3.0 22:22:08 10° NNW 22:29:50 88° WSW 22:30:46 74° SSE
Cosmos 2056 Rocket 4.4 22:34:46 45° NNW 22:34:46 45° NNW 22:38:47 10° N
H-2A R/B 4.1 22:34:25 10° N 22:36:12 24° NNW 22:36:12 24° NNW
Cosmos 2285 Rocket 4.1 22:32:27 10° NNW 22:38:09 70° NW 22:38:09 70° NW
CZ-2D R/B 4.3 22:42:32 10° ENE 22:45:04 14° E 22:45:04 14° E
Cosmos 2016 Rocket 4.3 22:47:07 59° E 22:47:07 59° E 22:53:13 10° NNE
Iridium 4 Rocket 4.2 22:42:04 10° N 22:46:52 55° NW 22:46:52 55° NW
BREEZE-M DEB (TANK) 4.4 22:39:29 10° WSW 22:53:11 47° NW 22:57:04 10° NE
Cosmos 1459 Rocket 4.0 22:54:44 74° NW 22:54:44 74° NW 23:00:46 10° N
Cosmos 1725 Rocket 4.0 22:57:07 71° E 22:57:07 71° E 23:03:17 10° N
Cosmos 2369 Rocket 3.6 23:04:13 27° WNW 23:04:25 27° WNW 23:09:07 10° N
USA 281 4.0 23:05:59 36° W 23:05:59 36° W 23:10:49 10° NW
Cosmos 44 Rocket 4.0 23:07:22 53° NNE 23:07:22 53° NNE 23:11:14 10° NNE
Cosmos 2100 Rocket 4.3 23:06:35 53° WNW 23:06:35 53° WNW 23:12:15 10° N
USA 59 Rocket 2.5 23:09:47 13° NNE 23:09:47 13° NNE 23:10:11 10° NNE
Cosmos 1802 Rocket 4.0 23:10:39 74° WNW 23:10:39 74° WNW 23:16:45 10° N
SJ 16-02 3.5 23:13:38 10° NNE 23:16:54 20° ENE 23:17:49 19° E
Lacrosse 4 Rocket 3.7 23:18:51 17° NW 23:18:51 17° NW 23:20:45 10° N
Resurs 1-4 Rocket 3.1 23:17:55 10° NNE 23:22:48 36° E 23:22:51 36° E
ADEOS II 3.7 23:21:58 10° NE 23:26:07 23° E 23:26:46 23° ESE
Cosmos 2061 Rocket 3.8 23:27:36 85° S 23:27:48 90° NW 23:34:01 10° N
MSX 4.2 23:23:40 10° NNE 23:29:18 53° E 23:29:38 52° ESE
COBE Rocket 4.5 23:27:30 10° N 23:31:26 50° NNW 23:31:26 50° NNW
IDEFIX/ARIANE 42P 2.7 23:29:46 10° NNE 23:34:39 66° E 23:34:39 66° E
USA 234 3.5 23:28:34 10° NE 23:35:01 63° NW 23:36:38 49° W
Meteor 1-20 Rocket 4.1 23:37:41 78° WNW 23:37:41 78° WNW 23:43:12 10° N
Tsikada Rocket 3.8 23:34:30 10° N 23:40:46 87° E 23:41:26 73° SSE
Cosmos 1302 Rocket 4.1 23:43:01 69° E 23:43:01 69° E 23:48:01 10° NNE
ASTEX 1 4.3 23:47:54 39° NW 23:47:54 39° NW 23:51:28 10° NNW
Cosmos 1626 4.4 23:46:59 10° NNE 23:48:33 17° ENE 23:48:33 17° ENE
COSMOS 2455 3.0 23:44:22 10° NW 23:49:41 57° W 23:49:41 57° W
